CZ-3B DEB, 40850

Orbit data source: Space-Track

CZ-3B DEB, 40850 is space debris in HEO originally from a launch on Mon, 19 Dec 2011 UTC launched from the Xichang Space Center, China (XSC). Debris objects in space refer to the collection of defunct objects orbiting the Earth. Examples of debris include non-operational satellites, rocket bodies, and fragments generated from explosions, collisions, or faulty payload assembly.

Loading next visibility...
Identifier
40850, 2011-077AF
Orbit
HEO
Last TLE update
6 days ago
Origin
Manufacturer
CALT
Mission
Spacecraft
Bus & Motor
Unknown
Mass
Unknown
Launch date (UTC)
2011-12-19 (13 years ago)
Launch vehicle
Unknown
Launch site
Xichang Space Center, China (XSC)
Object type
Payload
Rocket body
Debris
Shape & HBR
Unknown
Radar Cross Section
Medium (>0.1 m² and <1 m²)

Expand to show TLE details & history

TLE from 6 days ago
0 CZ-3B DEB
1 40850U 11077AF  25122.98322680  .00001196  00000-0  13980-1 0  9992
2 40850  25.9538 359.7552 7473584  58.6783 353.3068  1.92783660 71370
Epoch: 2025-05-02T23:35Z
Definitive object data (Epoch: 2025-05-02T23:35:50.795Z)
Latitude
-0.00011°
Longitude
144.67534°
Altitude
2,247.401 km
Speed
8.82 km/s
True Right ascension
23h 59m 04s
True Declination
0° 00' 00"
Sunlit
Object was in daylight at TLE epoch
Visualization TLE readout
Latitude
-5.37585°
Longitude
-25.98839°
Altitude
17,022.691 km
Speed
4.41 km/s
Apparent Right ascension
12h 06m 47s
Apparent Declination
-18° 01' 34"
Sunlit
Object is in daylight
Visualization observer readout
Local Sidereal Time
14:38:05
Azimuth
219.034° SW
Elevation
22.18°
Doppler factor
1
Orbital elements
Apogee altitude
41,279.567 km
Perigee altitude
512.446 km
Semi-major axis
27,274.144 km
Eccentricity
0.7473584
Inclination
25.9538°
RAAN
359.7552°
Arg. of periapsis
58.6783°
True anomaly
300.86845°
Mean anomaly
353.3068°
Eccentric anomaly
335.65472°
Mean motion
0.48186 °/min
BSTAR
0.01398
Orbital period
747.11 mins
Loading maneuver chart data...
Loading SW <> Apogee altitude chart data...
Loading historical data...
Loading historical data...
Loading historical data...
Loading historical data...
Loading historical data...
Loading historical data...
Loading historical data...

CZ-3B DEB Visibility forecast

Observer location: undefined°, undefined°

Span
Click to sort rows by Start time (UTC) header in descending order
Start Az.
Max El. time (UTC)
Max El. Az.
Max El.
End time (UTC)
End Az.
195 mins2025-05-09 06:29:15.011Z219.013° SW2025-05-09 06:40:15.011Z216.584° SW20.801°2025-05-09 09:44:15.011Z222.276° SW
|